Location: Newark
(40.3500°N, 15.2333°E)
Time: 04:32:32
(UTC+00:00)

Altair - Pass Details

Date: 24 January 2020
Orbit: 1502 x 1682 km, 47.2° (Epoch: 19 February)

Event Time Altitude Azimuth Distance (km) Brightness Sun altitude
Rises 16:34:46 0° 288° (WNW) 4,897 11.1 -5.7°
Reaches altitude 10° 16:40:10 10° 265° (W) 3,872 11.2 -6.7°
Maximum altitude 16:44:24 14° 239° (WSW) 3,553 10.9 -7.4°
Drops below altitude 10° 16:48:35 10° 213° (SSW) 3,802 10.4 -8.2°
Sets 16:53:51 0° 189° (S) 4,741 10.4 -9.1°
